Location: Newark
(46.7000°N, 60.6000°W)
Time: 02:59:28
(UTC+00:00)

SR - Pass Details

Date: 27 October 2020
Orbit: 579 x 876 km, 66.7° (Epoch: 30 November)

Event Time Altitude Azimuth Distance (km) Brightness Sun altitude
Exits shadow 08:26:30 15° 348° (NNW) 1,653 ? -23.0°
Drops below altitude 10° 08:28:04 10° 7° (N) 1,997 ? -22.8°
Sets 08:31:07 0° 27° (NNE) 2,960 ? -22.3°
